Weather History for Las Cruces, NM

Change the Weather History Date:

Thursday, October 11, 2012

  Actual Average Record
Temperature  
Mean Temperature 66 °F -  
Max Temperature 76 °F 76 °F 91 °F (2007)
Min Temperature 56 °F 52 °F 41 °F (2001)
Cooling Degree Days 1    
Growing Degree Days 16 (Base 50)    
Moisture  
Dew Point 44 °F    
Average Humidity 45    
Maximum Humidity 62    
Minimum Humidity 24    
Precipitation  
Precipitation 0.00 in - - ()
Sea Level Pressure  
Sea Level Pressure 30.10 in    
Wind  
Wind Speed 6 mph (SSE)    
Max Wind Speed 13 mph    
Max Gust Speed 16 mph    
Visibility 10 miles    
Events Rain    
Averages and records for this station are not official NWS values.
T = Trace of Precipitation, MM = Missing Value Source: NWS Daily Summary

Daily Weather History Graph

Daily Weather History Graph

Search for Another Location

Airport:

Trip Planner

Search our weather history database for the weather conditions in past years. The results will help you decide how hot, cold, wet, or windy it might be!

Date:

Astronomy

Oct. 11, 2012 Rise Set
Actual Time 7:08 AM MDT 6:39 PM MDT
Civil Twilight 6:44 AM MDT 7:03 PM MDT
Nautical Twilight 6:15 AM MDT 7:32 PM MDT
Astronomical Twilight 5:47 AM MDT 8:00 PM MDT
Moon 3:03 AM MDT (10/11) 4:05 PM MDT (10/11)
Length of Visible Light 12h 19m
Length of Day
11h 30m
Waning Crescent, 18% of the Moon is Illuminated
Oct 11
Waning Crescent
Oct 15
New
Oct 21
First Quarter
Oct 29
Full
Nov 6
Last Quarter

Hourly Weather History & Observations

Time (MDT) Temp. Dew Point Humidity Pressure Visibility Wind Dir Wind Speed Gust Speed Precip Events Conditions
12:15 AM 66.2 °F 40.5 °F 39% 30.07 in 10.0 mi SE 6.9 mph - N/A   Mostly Cloudy
12:35 AM 66.2 °F 41.0 °F 40% 30.06 in 10.0 mi SE 6.9 mph - N/A   Scattered Clouds
12:55 AM 65.3 °F 41.4 °F 42% 30.06 in 10.0 mi SSE 5.8 mph - N/A   Clear
1:15 AM 64.8 °F 41.9 °F 43% 30.06 in 10.0 mi SSE 3.5 mph - N/A   Clear
1:35 AM 63.7 °F 41.9 °F 45% 30.06 in 10.0 mi SSE 5.8 mph - N/A   Clear
1:55 AM 64.0 °F 42.4 °F 45% 30.06 in 10.0 mi SSE 8.1 mph - N/A   Clear
2:15 AM 63.1 °F 42.3 °F 46% 30.06 in 10.0 mi South 4.6 mph - N/A   Clear
2:35 AM 61.7 °F 42.1 °F 49% 30.06 in 10.0 mi SSW 3.5 mph - N/A   Clear
2:55 AM 58.5 °F 41.0 °F 52% 30.06 in 10.0 mi SW 4.6 mph - N/A   Clear
3:15 AM 57.2 °F 40.5 °F 54% 30.07 in 10.0 mi WSW 5.8 mph - N/A   Clear
3:35 AM 58.3 °F 41.4 °F 53% 30.07 in 10.0 mi SW 5.8 mph - N/A   Clear
3:55 AM 56.5 °F 41.0 °F 56% 30.07 in 10.0 mi Calm Calm - N/A   Clear
4:15 AM 58.3 °F 43.0 °F 57% 30.07 in 10.0 mi South 4.6 mph - N/A   Clear
4:35 AM 61.7 °F 44.2 °F 53% 30.07 in 10.0 mi SSE 5.8 mph - N/A   Clear
5:15 AM 62.6 °F 45.5 °F 54% 30.07 in 10.0 mi SE 6.9 mph - N/A   Clear
5:35 AM 61.7 °F 45.7 °F 56% 30.07 in 10.0 mi SE 6.9 mph - N/A   Clear
5:55 AM 60.8 °F 45.7 °F 57% 30.08 in 10.0 mi SE 8.1 mph - N/A   Clear
6:15 AM 60.1 °F 45.9 °F 59% 30.08 in 10.0 mi SSE 6.9 mph - N/A   Clear
6:35 AM 59.4 °F 46.4 °F 62% 30.08 in 10.0 mi South 4.6 mph - N/A   Clear
6:55 AM 59.4 °F 46.4 °F 62% 30.09 in 10.0 mi SSE 5.8 mph - N/A   Clear
7:15 AM 59.9 °F 46.8 °F 62% 30.09 in 10.0 mi SSE 5.8 mph - N/A   Scattered Clouds
7:35 AM 60.4 °F 47.3 °F 62% 30.10 in 10.0 mi SSE 5.8 mph - N/A   Scattered Clouds
7:55 AM 61.5 °F 47.7 °F 60% 30.11 in 10.0 mi South 4.6 mph - N/A   Scattered Clouds
8:35 AM 64.8 °F 48.0 °F 55% 30.13 in 10.0 mi SSE 4.6 mph - N/A   Clear
8:55 AM 66.2 °F 47.8 °F 52% 30.13 in 10.0 mi South 3.5 mph - N/A   Mostly Cloudy
9:15 AM 66.6 °F 48.0 °F 51% 30.16 in 10.0 mi SSW 3.5 mph - N/A   Overcast
9:35 AM 65.8 °F 48.6 °F 54% 30.15 in 10.0 mi Calm Calm - N/A Rain Light Rain
9:55 AM 67.8 °F 48.6 °F 50% 30.15 in 10.0 mi Calm Calm - N/A   Mostly Cloudy
10:15 AM 68.9 °F 48.2 °F 48% 30.16 in 10.0 mi SSE 3.5 mph - N/A   Overcast
10:35 AM 70.5 °F 47.7 °F 44% 30.15 in 10.0 mi ESE 3.5 mph - N/A   Scattered Clouds
11:35 AM 73.0 °F 45.7 °F 38% 30.14 in 10.0 mi NE 3.5 mph - N/A   Mostly Cloudy
11:55 AM 74.5 °F 43.7 °F 33% 30.14 in 10.0 mi Calm Calm - N/A   Overcast
12:15 PM 75.0 °F 40.6 °F 29% 30.16 in 10.0 mi WSW 12.7 mph 16.1 mph N/A   Overcast
12:35 PM 73.9 °F 41.4 °F 31% 30.14 in 10.0 mi WNW 5.8 mph - N/A Rain Light Rain
12:55 PM 76.5 °F 40.3 °F 27% 30.14 in 10.0 mi WNW 5.8 mph - N/A   Scattered Clouds
1:15 PM 76.1 °F 40.5 °F 28% 30.14 in 10.0 mi West 4.6 mph - N/A   Scattered Clouds
1:35 PM 76.3 °F 37.2 °F 24% 30.12 in 10.0 mi WSW 5.8 mph - N/A   Overcast
1:55 PM 76.3 °F 40.1 °F 27% 30.13 in 10.0 mi West 11.5 mph - N/A   Overcast
2:35 PM 73.6 °F 40.1 °F 30% 30.12 in 10.0 mi WNW 8.1 mph - N/A   Overcast
2:55 PM 72.5 °F 41.2 °F 32% 30.12 in 10.0 mi NW 6.9 mph - N/A   Overcast
3:35 PM 75.6 °F 46.4 °F 35% 30.09 in 10.0 mi NW 6.9 mph - N/A   Scattered Clouds
4:15 PM 76.3 °F 46.0 °F 34% 30.08 in 10.0 mi North 5.8 mph - N/A   Clear
4:55 PM 76.1 °F 45.7 °F 34% 30.08 in 10.0 mi NE 6.9 mph - N/A   Clear
5:15 PM 75.6 °F 45.9 °F 35% 30.07 in 10.0 mi NE 8.1 mph - N/A   Clear
5:35 PM 75.7 °F 45.7 °F 34% 30.07 in 10.0 mi NE 6.9 mph - N/A   Clear
5:55 PM 74.5 °F 45.9 °F 36% 30.07 in 10.0 mi NE 6.9 mph - N/A   Clear
6:15 PM 74.5 °F 45.7 °F 36% 30.07 in 10.0 mi NE 5.8 mph - N/A   Clear
6:35 PM 73.2 °F 46.4 °F 38% 30.07 in 10.0 mi NE 5.8 mph - N/A   Clear
7:15 PM 69.3 °F 46.0 °F 43% 30.08 in 10.0 mi North 6.9 mph - N/A   Clear
7:35 PM 68.7 °F 46.0 °F 44% 30.08 in 10.0 mi North 5.8 mph - N/A   Clear
7:55 PM 66.0 °F 45.5 °F 48% 30.08 in 10.0 mi North 5.8 mph - N/A   Clear
8:15 PM 64.4 °F 45.1 °F 50% 30.08 in 10.0 mi North 8.1 mph - N/A   Clear
8:55 PM 62.6 °F 44.8 °F 52% 30.08 in 10.0 mi North 5.8 mph - N/A   Clear
9:15 PM 61.7 °F 44.2 °F 53% 30.09 in 10.0 mi North 4.6 mph - N/A   Clear
10:35 PM 63.7 °F 45.5 °F 52% 30.09 in 10.0 mi WNW 3.5 mph - N/A   Overcast
10:55 PM 65.5 °F 44.2 °F 46% 30.11 in 10.0 mi ESE 8.1 mph - N/A   Scattered Clouds
11:15 PM 62.6 °F 44.2 °F 51% 30.10 in 10.0 mi ESE 5.8 mph - N/A   Clear
11:35 PM 64.2 °F 44.8 °F 49% 30.09 in 10.0 mi ESE 6.9 mph - N/A   Clear